Location: Sternwarte ZA, Rosenfeld-Brittheim
(48.2889°N, 8.6789°E)
Time: 05:48:27
(UTC+02:00)

ISS - Pass Details

Date: 04 April 2020
Orbit: 417 x 423 km, 51.6° (Epoch: 29 March)

Event Time Altitude Azimuth Distance (km) Brightness Sun altitude
Rises 21:48:54 0° 282° (WNW) 2,361 1.4 -17.6°
Reaches altitude 10° 21:51:57 10° 252° (WSW) 1,493 -0.4 -18.0°
Maximum altitude 21:53:26 12° 225° (SW) 1,349 -1.0 -18.2°
Enters shadow 21:54:39 11° 203° (SSW) 1,444 -1.1 -18.4°
